Location: Dead Woman Crossing
(43.5369°N, 106.3228°W)
Time: 09:49:25
(UTC+00:00)

QB50P2 - Pass Details

Date: 03 July 2022
Orbit: 590 x 605 km, 97.9° (Epoch: 14 August)

Event Time Altitude Azimuth Distance (km) Brightness Sun altitude
Rises 10:06:17 0° 350° (N) 2,862 ? -12.1°
Reaches altitude 10° 10:10:26 10° 310° (NW) 1,955 ? -11.6°
Maximum altitude 10:11:09 10° 300° (WNW) 1,930 ? -11.6°
Drops below altitude 10° 10:11:52 10° 291° (WNW) 1,954 ? -11.5°
Enters shadow 10:13:45 - 268° (W) 2,236 ? -11.2°
